Погода в Астаре

Погода в Астаре : погода сейчас, прогноз погоды и архив. Всё, что Вы хотите узнать о погоде в Астаре!

Поиск расширенной информации на нашем сайте:

Другие новости

Новости СМИ2

Главная страница сайта

Новости сайта

02.10.2013

Напоминаем, что на нашем новом сайте вы можете получить высокодетализированные прогнозы погоды по пунктам России, СНГ и мира (включающие важные для авиации метеовеличины, такие как направление и скорость ветра, видимость, явления погоды, количество и форма облачности, нижняя и верхняя граница облачности), а также ознакомиться с разнообразными материалами по авиационной метеорологии и подборкой полезных ссылок на эту тему.

Сайт Метеоцентр.Азия посвящён разработке технологий оптимизации авиаметеорологического обслуживания, включая проектирование и перспективное создание нескольких автоматизированных авиаметеорологических систем:
- система выпуска высокодетальных прогностических карт явлений погоды для нижнего воздушного пространства по России и ближнему зарубежью;
- система верификации прогнозов TAF (выпускаемых синоптиками официальных АМСГ РФ и ближнего зарубежья) и AUTOTAF (выпускаемых сайтом Метеоцентр.Азия) - выявление ошибок, онлайн-сопоставление с фактической погодой METAR, автоматическое внесение коррективов в прогнозы при резком отклонении фактической погоды от прогноза, подсчёт оправдываемости прогнозов по элементам и в целом;
- система обработки, анализа и отображения авиаметеорологической информации для применения провайдерами метеорологической информации.

Рекомендуем: Заправка картриджей Молодежная для Samsung.

Погода в Астаре - сегодня

Время (UTC), дата Ветер
(°,м/с) 
Видим.   Явления Облачность Т
(°С)
Тd
(°С)
f(%) Тe
(°С)
Pmin
(гПа)
dP
(гПа)
Po
(мм)
O2
(г/м3)
Тmin Tmax R s Состояние
почвы
15 21.01.17 210 (ЮЗ) 4000 м    8/8 600 м 
[Sc]
+5.9 +3.3 83 +7  1024.1  0.4  770  303           
18 21.01.17 250 (З) 4000 м    8/8 600 м 
[Sc]
+4.9 +3.5 91 +6  1024.1  770  304    +7.1       
21 21.01.17 290 (З) 4000 м    10/10 600 м 
[Sc]
+3.9 +2.4 90 +3  1023.7  -0.4  770  305           
00 22.01.17 290 (З) 4000 м    10/10 600 м 
[Sc]
+4.5 +1.6 81 +4  1023.1  -0.6  769  305           
03 22.01.17 320 (СЗ) 4000 м    8/8 600 м 
[Sc]
+4.1 +1.2 81 +5  1023.2  0.1  769  305           
06 22.01.17 060 (СВ) 20000 м    8/8 600 м 
[Sc]
+5.7 -1.6 59 +5  1023.9  0.7  770  304         
09 22.01.17 090 (В) 20000 м    9/9 600 м 
[Sc]
+6.8 +0.1 62 +8  1023.7  -0.2  770  303           
12 22.01.17 050 (СВ) 20000 м    9/9 600 м 
[Sc]
+7.6 +0 59 +9  1023.7  770  302           
15 22.01.17 240 (ЮЗ) 4000 м    10/10 600 м 
[Sc]
+7.2 -0.9 56 +8  1026.9  3.2  772  303           
18 22.01.17 210 (ЮЗ) 4000 м    10/10 600 м 
[Sc]
+7.5 -1.4 53 +8  1029.7  2.8  774  304    +8.3       
21 22.01.17 350 (С) 4000 м  слаб. дождь  10/10 300 м 
[Frnb|Ns]
+4.6 +3.2 91 +4  1031.9  2.2  776  307           
00 23.01.17 290 (З) 4000 м  слаб. дождь  10/10 300 м 
[Frnb|Ns]
+3.8 +2.9 94 +3  1032.5  0.6  776  308           
03 23.01.17 280 (З) 4000 м    8/8 600 м 
[Sc]
+3.4 +2.5 94 +3  1031.8  -0.6  776  308         
06 23.01.17 300 (СЗ) 20000 м    1/1 600 м 
[Cu hum]
+4.3 +2.4 87 +4  1032.3  0.4  776  308         
09 23.01.17 120 (ЮВ) 20000 м    1/1 600 м 
[Cu hum]
+7.8 +3.4 74 +7  1031.9  -0.4  776  304           
12 23.01.17 120 (ЮВ) 20000 м    1/0 средняя 
[Ac trans]
+8.2 +2.5 67 +8  1030.5  -1.4  775  303           
15 23.01.17 190 (Ю) 4000 м    ясно 
+5.8 +3.4 85 +7  1031.4  0.9  776  306           
18 23.01.17 320 (СЗ) 4000 м    ясно 
+3.4 +0.5 81 +3  1032  0.7  776  309    +8.6       
21 23.01.17 310 (СЗ) 4000 м    8/0 средняя 
[Ac trans]
+3.5 -0.6 74 +3  1032.6  0.6  777  309           
00 24.01.17 280 (З) 4000 м    6/0 средняя 
[Ac trans]
+3.4 -1.3 71 +3  1033.2  0.6  777  309           
03 24.01.17 290 (З) 4000 м    ясно 
+3.1 -2.7 66 +3  1032.8  -0.4  777  310           
06 24.01.17 230 (ЮЗ) 20000 м    1/1 600 м 
[Cu hum]
+5.9 -0.9 62 +7  1033.4  0.6  777  307         
09 24.01.17 150 (ЮВ) 20000 м    1/1 600 м 
[Cu hum]
+9.1 +3.9 70 +9  1032.1  -1.4  776  302           
12 24.01.17 190 (Ю) 20000 м    ясно 
+9.1 +4.6 73 +8  1029.4  -2.7  774  301           
15 24.01.17 190 (Ю) 4000 м    ясно 
+7 +3.8 80 +7  1028.4  -1  773  303           
Время (UTC), дата Ветер
(°,м/с) 
Видим.   Явления Облачность Т
(°С)
Тd
(°С)
f(%) Тe
(°С)
Pmin
(гПа)
dP
(гПа)
Po
(мм)
O2
(г/м3)
Тmin Tmax R s Состояние
почвы

Для получения пояснительной информации подведите курсор к названию столбца.

ПОГОДА в Астаре - архив

Всё, что Вы хотите узнать о погоде в Астаре - удобно и подробно!

Выберите нужную дату (начиная с 1 января 2015* года) и нажмите кнопку "Найти".
Будут отображены архивные сводки погоды по пункту Астара, начиная с указанной даты.


Отображать данные в формате CSV (для использования в таблицах Excel)


Внимание! Наш архив погоды предназначен исключительно для личного некоммерческого использования в познавательных целях. Если Вам необходимы официальные справки о состоянии погоды (для производственных, юридических, коммерческих и т.п. целей), обращайтесь в органы Росгидромета.

*Примечание: данная дата относится к архиву по метеостанциям СССР (Россия, СНГ, Балтия).
Архив по метеостанциям Зарубежной Европы и Азии (кроме Китая) хранится 10 дней, по другим регионам земного шара (Китай, Африка, Америка, Австралия, Океания) - 1 день.

Астара - район местоположения метеостанции


Название, широта, долгота, высота метеостанции:
Астара 38.4°ш. 48.9°д. -22 м над ур. моря [Азербайджан]

Дополнительная информация

В oтличие oт бoльшинства пoгoдных сайтoв мы публикуем пoдрoбную метеoинфoрмацию в детальнoм прoфессиoнальнoм фoрмате.

Характеристики температуры и влажнoсти вoздуха измеряются на высoте 2 м в тени вдали oт зданий и деревьев.
Скoрoсть ветра измеряется на высoте 10 м (на урoвне рoста челoвека скoрoсть ветра ниже в 1.5-2 раза). Если метеoстанция нахoдится в гoрoде или в лесу, тo скoрoсть ветра занижена на 2-4 м/с пo сравнению с oткрытым местoм. Скoрoсть ветра над акватoриями крупных рек и oзёр, а также на вершинах хoлмoв на 2-5 м/с выше, чем в oбычных услoвиях.
Атмoсфернoе давление в разных тoчках местнoсти мoжет значительнo oтличаться oт давления на метеoстанции, в зависимoсти oт услoвий рельефа (при пoдъёме на 10 м давление пoнижается примернo на 1 мм рт.ст.).